Home > Time Zones > World Clock > Weather > Japan > Naha > Past weeks

Flag for Japan Weather past 2 weeks in Naha, Okinawa, Japan

Now
84 °F

Scattered showers. Passing clouds.


Feels Like: 92 °F
Forecast: 80 / 88 °F
Wind: 2 mph from North

Location: Naha Airport

Current Time: Aug 21, 2014 at 9:38:20 PM

Latest Report: Aug 21, 2014 at 9:00 PM


Visibility: N/A

Pressure: 29.89 "Hg

Humidity: 74%

Dew point: 75 °F

Location of NahaLocation

Historic Weather in Naha — Graph

°F

Naha temperature yesterday

Maximum temperature yesterday: 88 °F (at 10:30 AM)
Minimum temperature yesterday: 81 °F (at 12:30 AM)
Average temperature yesterday: 84 °F

Past Weeks' High & Low Weather Summary

 TemperatureHumidityPressure
High88 °F (Aug 7, 11:30 AM)94% (Aug 8, 8:00 AM)29.95 "Hg (Aug 8, 8:00 AM)
Low75 °F (Aug 17, 11:00 AM)66% (Aug 18, 12:00 PM)29.33 "Hg (Aug 8, 3:30 AM)
Average84 °F82%29.71 "Hg
* Reported Aug 6 8:00 PM — Aug 21 8:30 PM, Naha, Weather by CustomWeather, © 2014

Note: Actual official high and low records may vary slightly from our data, if they occured in-between our weather recording intervals... More about our weather records

Advertising

Naha weather history for previous 24 hours

 ConditionsComfort  
Time TempWeatherWind HumidityBarometerVisibility
8:30 PM
Aug 21
82 °FScattered showers. Passing clouds.3 mph79%29.89 "HgN/A
8:00 PM84 °FScattered showers. Passing clouds.5 mph74%29.89 "HgN/A
7:30 PM84 °FPassing clouds.5 mph74%29.86 "HgN/A
7:00 PM84 °FPassing clouds.3 mph74%29.86 "HgN/A
6:30 PM84 °FPassing clouds.2 mph74%29.86 "HgN/A
6:00 PM84 °FPassing clouds.3 mph79%29.83 "HgN/A
5:30 PM82 °FScattered showers. Scattered clouds.1 mph89%29.86 "HgN/A
5:00 PM82 °FScattered showers. Scattered clouds.1 mph89%29.86 "HgN/A
4:30 PM81 °FSprinkles. Broken clouds.5 mph89%29.86 "HgN/A
4:00 PM81 °FLots of rain. Broken clouds.3 mph89%29.86 "HgN/A
3:30 PM82 °FLots of rain. Broken clouds.8 mph79%29.86 "HgN/A
3:00 PM86 °FLots of rain. Broken clouds.6 mph70%29.86 "HgN/A
2:30 PM88 °FScattered showers. Passing clouds.6 mph70%29.86 "HgN/A
2:00 PM86 °FScattered showers. Passing clouds.7 mph75%29.86 "HgN/A
1:30 PM86 °FPassing clouds.8 mph70%29.86 "HgN/A
1:00 PM88 °FScattered showers. Passing clouds.6 mph75%29.89 "HgN/A
12:30 PM84 °FSprinkles. Scattered clouds.6 mph79%29.89 "HgN/A
12:00 PM84 °FSprinkles. Scattered clouds.7 mph74%29.89 "HgN/A
11:30 AM86 °FRain showers. Scattered clouds.7 mph75%29.89 "HgN/A
11:00 AM88 °FScattered clouds.7 mph70%29.89 "HgN/A
10:30 AM86 °FPassing clouds.7 mph75%29.89 "HgN/A
10:00 AM86 °FPassing clouds.7 mph75%29.89 "HgN/A
9:30 AM86 °FScattered clouds.6 mph75%29.89 "HgN/A
8:30 AM84 °FScattered clouds.5 mph79%29.89 "HgN/A
8:00 AM84 °FScattered clouds.6 mph79%29.89 "HgN/A
7:30 AM82 °FPassing clouds.5 mph84%29.89 "HgN/A
7:00 AM82 °FPassing clouds.2 mph84%29.89 "HgN/A
6:30 AM81 °FPassing clouds.2 mph84%29.89 "HgN/A
5:30 AM81 °FPassing clouds.5 mph84%29.89 "HgN/A
5:00 AM81 °FPassing clouds.2 mph79%29.89 "HgN/A
4:30 AM81 °FPassing clouds.5 mph84%29.89 "HgN/A
4:00 AM81 °FPassing clouds.5 mph84%29.89 "HgN/A
3:30 AM82 °FRain showers. Passing clouds.3 mph79%29.89 "HgN/A
3:00 AM82 °FScattered showers. Passing clouds.3 mph79%29.89 "HgN/A
2:30 AM82 °FPassing clouds.5 mph79%29.89 "HgN/A
2:00 AM82 °FPassing clouds.6 mph79%29.89 "HgN/A
1:30 AM82 °FScattered showers. Passing clouds.5 mph79%29.92 "HgN/A
1:00 AM82 °FPassing clouds.3 mph79%29.92 "HgN/A
12:30 AM82 °FPassing clouds.3 mph79%29.92 "HgN/A
12:00 AM82 °FPassing clouds.3 mph79%29.92 "HgN/A
11:30 PM
Aug 20
82 °FPassing clouds.5 mph79%29.92 "HgN/A
11:00 PM82 °FPassing clouds.5 mph79%29.92 "HgN/A
10:30 PM82 °FPassing clouds.6 mph79%29.92 "HgN/A
10:00 PM82 °FPassing clouds.6 mph79%29.92 "HgN/A
9:30 PM82 °FPassing clouds.6 mph79%29.92 "HgN/A
9:00 PM84 °FPassing clouds.6 mph74%29.92 "HgN/A
Weather by CustomWeather, © 2014

See weather overviewHow to use our weather pages